This is the latest recevied weather packets stored in our database for station/object YO6SAY-10. If no packets are shown the sender has not sent any weather packets the latest 10 day(s).
| Time | Temp. | Humidity | Pressure | Rain* | Wind** | Luminosity | Snow |
|---|---|---|---|---|---|---|---|
| 1777242457 | 15° C | 44% | 954.1 hPa | - | - | - | - |
| 1777241557 | 15.56° C | 44% | 953.9 hPa | - | - | - | - |
| 1777240656 | 15.56° C | 44% | 953.9 hPa | - | - | - | - |
| 1777239756 | 15.56° C | 43% | 953.8 hPa | - | - | - | - |
| 1777238856 | 15.56° C | 43% | 953.7 hPa | - | - | - | - |
| 1777237956 | 16.11° C | 43% | 953.5 hPa | - | - | - | - |
| 1777237056 | 16.11° C | 42% | 953.3 hPa | - | - | - | - |
| 1777236156 | 16.11° C | 41% | 953.2 hPa | - | - | - | - |
| 1777235255 | 16.11° C | 41% | 953.2 hPa | - | - | - | - |
| 1777234359 | 16.67° C | 40% | 952.7 hPa | - | - | - | - |
| 1777233455 | 16.67° C | 40% | 952.5 hPa | - | - | - | - |
| 1777232555 | 16.67° C | 39% | 952.4 hPa | - | - | - | - |
| 1777231655 | 17.22° C | 38% | 952.1 hPa | - | - | - | - |
| 1777230755 | 17.22° C | 37% | 951.8 hPa | - | - | - | - |
| 1777229855 | 17.78° C | 36% | 951.7 hPa | - | - | - | - |
| 1777228954 | 17.78° C | 35% | 951.2 hPa | - | - | - | - |
| 1777228054 | 17.78° C | 34% | 950.6 hPa | - | - | - | - |
| 1777227154 | 18.89° C | 34% | 950.3 hPa | - | - | - | - |
| 1777226254 | 19.44° C | 34% | 949.9 hPa | - | - | - | - |
| 1777225354 | 20° C | 33% | 949.5 hPa | - | - | - | - |
| 1777224454 | 21.11° C | 33% | 949.3 hPa | - | - | - | - |
| 1777223554 | 22.22° C | 33% | 949 hPa | - | - | - | - |
| 1777222653 | 23.33° C | 34% | 948.8 hPa | - | - | - | - |
| 1777221753 | 25° C | 35% | 948.3 hPa | - | - | - | - |
| 1777220853 | 27.22° C | 37% | 948 hPa | - | - | - | - |
* Rain since midnight (hover to see other rain measurements)
** Current wind speed in m/s (hover to see current wind gust speed)